This demonstration page uses our WeatherBlox Daily Observations layout. Learn more.

Left ArrowRight Arrow

Hourly Observations for September 15, 2015

Temp ( °F °C ) Dew Point ( °F °C ) Humidity (%) Winds ( mph kmh ) Pressure ( in mb ) Visibility ( mi km ) Precip ( " mm )
12:53 am 00:53 Clear 51 10.6 50 10 96 96 Calm 30.26 1025 10 16.0934 0 0
1:53 am 01:53 Clear 50 10 49 9.4 96 96 Calm 30.27 1025 10 16.0934 0 0
2:53 am 02:53 Clear 50 10 48 8.9 93 93 Calm 30.28 1025 10 16.0934 0 0
3:53 am 03:53 Clear 49 9.4 48 8.9 97 97 Calm 30.29 1026 9 14.48406 0 0
4:53 am 04:53 Clear 49 9.4 47 8.3 93 93 Calm 30.3 1026 7 11.26538 0 0
5:53 am 05:53 Clear 48 8.9 47 8.3 96 96 Calm 30.31 1027 8 12.87472 0 0
6:53 am 06:53 Clear 47 8.3 46 7.8 97 97 Calm 30.33 1027 9 14.48406 0 0
7:53 am 07:53 Sunny 49 9.4 47 8.3 93 93 Calm 30.34 1028 7 11.26538 0 0
8:53 am 08:53 Sunny 58 14.4 54 12.2 87 87 E 5 7 30.35 1028 10 16.0934 0 0
9:53 am 09:53 Sunny 65 18.3 55 12.8 70 70 E 3 6 30.37 1028 10 16.0934 0 0
10:53 am 10:53 Sunny 70 21.1 54 12.2 57 57 E 5 7 30.37 1029 10 16.0934 0 0
11:53 am 11:53 Sunny 74 23.3 54 12.2 50 50 Calm 30.37 1028 10 16.0934 0 0
12:53 pm 12:53 Sunny 77 25 52 11.1 42 42 ESE 6 9 30.35 1028 10 16.0934 0 0
1:53 pm 13:53 Sunny 78 25.6 52 11.1 40 40 VRB 5 7 30.33 1027 10 16.0934 0 0
2:53 pm 14:53 Sunny 80 26.7 52 11.1 38 38 VRB 3 6 30.31 1027 10 16.0934 0 0
3:53 pm 15:53 Sunny 80 26.7 52 11.1 38 38 VRB 5 7 30.29 1026 10 16.0934 0 0
4:53 pm 16:53 Sunny 80 26.7 51 10.6 37 37 VRB 5 7 30.29 1026 10 16.0934 0 0
5:53 pm 17:53 Sunny 80 26.7 51 10.6 37 37 VRB 3 6 30.28 1025 10 16.0934 0 0
6:53 pm 18:53 Sunny 77 25 52 11.1 42 42 SSE 3 6 30.28 1025 10 16.0934 0 0
7:53 pm 19:53 Clear 65 18.3 57 13.9 76 76 Calm 30.28 1025 10 16.0934 0 0
8:53 pm 20:53 Clear 60 15.6 56 13.3 86 86 Calm 30.29 1026 10 16.0934 0 0
9:53 pm 21:53 Clear 58 14.4 55 12.8 90 90 Calm 30.29 1026 10 16.0934 0 0
10:53 pm 22:53 Clear 62 16.7 56 13.3 80 80 E 3 6 30.3 1026 10 16.0934 0 0
11:53 pm 23:53 Clear 57 13.9 55 12.8 93 93 Calm 30.3 1026 10 16.0934 0 0

Powered by AerisWeather